| time (UTC) | temp C | wind direction | speed KPH | gust KPH | rain 1hr cm | rain 24hr cm | rain mn cm | humidity % | barometer mb |
| 20260906122933 | 23 | 315 | 0.0 | 0.0 | 0.00 | 0.00 | 0.00 | 89 | 1011.9 |
| 20260906122428 | 23 | 117 | 0.0 | 0.0 | 0.00 | 0.00 | 0.00 | 90 | 1011.9 |
| 20260906121925 | 23 | 4 | 0.0 | 3.2 | 0.00 | 0.00 | 0.00 | 91 | 1011.9 |
| 20260906121421 | 23 | 242 | 0.0 | 0.0 | 0.00 | 0.00 | 0.00 | 92 | 1011.7 |
| 20260906120917 | 23 | 269 | 0.0 | 1.6 | 0.00 | 0.00 | 0.00 | 92 | 1011.7 |
| 20260906120412 | 22 | 15 | 0.0 | 1.6 | 0.00 | 0.00 | 0.00 | 92 | 1011.5 |
| 20260906115908 | 22 | 299 | 0.0 | 1.6 | 0.00 | 0.00 | 0.00 | 93 | 1011.4 |
| 20260906115404 | 22 | 256 | 0.0 | 1.6 | 0.00 | 0.00 | 0.00 | 94 | 1011.4 |
| 20260906114903 | 22 | 89 | 0.0 | 1.6 | 0.00 | 0.00 | 0.00 | 94 | 1011.5 |
| 20260906114358 | 22 | 336 | 0.0 | 0.0 | 0.00 | 0.00 | 0.00 | 94 | 1011.6 |
| 20260906113853 | 22 | 304 | 0.0 | 0.0 | 0.00 | 0.00 | 0.00 | 94 | 1011.6 |
| 20260906113352 | 22 | 309 | 0.0 | 1.6 | 0.00 | 0.00 | 0.00 | 94 | 1011.4 |
| 20260906112848 | 22 | 333 | 0.0 | 1.6 | 0.00 | 0.00 | 0.00 | 95 | 1011.3 |
| 20260906112343 | 22 | 277 | 0.0 | 1.6 | 0.00 | 0.00 | 0.00 | 95 | 1011.6 |
| 20260906111838 | 22 | 89 | 0.0 | 1.6 | 0.00 | 0.00 | 0.00 | 95 | 1011.1 |
| 20260906111338 | 22 | 293 | 0.0 | 0.0 | 0.00 | 0.00 | 0.00 | 95 | 1011.3 |
| 20260906110833 | 22 | 62 | 0.0 | 0.0 | 0.00 | 0.00 | 0.00 | 95 | 1011.3 |
| 20260906110329 | 22 | 107 | 0.0 | 0.0 | 0.00 | 0.00 | 0.00 | 95 | 1011.2 |
| 20260906105828 | 22 | 72 | 0.0 | 0.0 | 0.00 | 0.00 | 0.00 | 95 | 1011.2 |
| 20260906105323 | 22 | 322 | 0.0 | 1.6 | 0.00 | 0.00 | 0.00 | 95 | 1011.1 |
| 20260906104819 | 22 | 235 | 0.0 | 0.0 | 0.00 | 0.00 | 0.00 | 95 | 1011.0 |
| 20260906104318 | 22 | 283 | 0.0 | 0.0 | 0.00 | 0.00 | 0.00 | 95 | 1011.0 |
| 20260906103816 | 22 | 73 | 0.0 | 0.0 | 0.00 | 0.00 | 0.00 | 95 | 1011.0 |
| 20260906103315 | 22 | 77 | 0.0 | 0.0 | 0.00 | 0.00 | 0.00 | 94 | 1010.8 |
| 20260906102811 | 22 | 349 | 0.0 | 0.0 | 0.00 | 0.00 | 0.00 | 94 | 1010.9 |
| 20260906102310 | 22 | 309 | 0.0 | 3.2 | 0.00 | 0.00 | 0.00 | 94 | 1010.8 |
| 20260906101805 | 22 | 89 | 0.0 | 0.0 | 0.00 | 0.00 | 0.00 | 94 | 1010.7 |
| 20260906101301 | 22 | 104 | 1.6 | 1.6 | 0.00 | 0.00 | 0.00 | 94 | 1010.7 |
| 20260906100756 | 22 | 339 | 0.0 | 1.6 | 0.00 | 0.00 | 0.00 | 94 | 1010.7 |
| 20260906100254 | 22 | 147 | 0.0 | 0.0 | 0.00 | 0.00 | 0.00 | 94 | 1010.7 |
| 20260906095750 | 23 | 94 | 0.0 | 4.8 | 0.00 | 0.00 | 0.00 | 94 | 1010.4 |
| 20260906095245 | 23 | 83 | 0.0 | 1.6 | 0.00 | 0.00 | 0.00 | 94 | 1010.7 |
| 20260906094745 | 23 | 76 | 0.0 | 0.0 | 0.00 | 0.00 | 0.00 | 94 | 1010.5 |
| 20260906094240 | 23 | 247 | 1.6 | 1.6 | 0.00 | 0.00 | 0.00 | 94 | 1010.4 |
| 20260906093736 | 23 | 244 | 0.0 | 1.6 | 0.00 | 0.00 | 0.00 | 94 | 1010.5 |
| 20260906093231 | 23 | 104 | 0.0 | 0.0 | 0.00 | 0.00 | 0.00 | 94 | 1010.3 |
| 20260906092726 | 23 | 212 | 0.0 | 1.6 | 0.00 | 0.00 | 0.00 | 94 | 1010.3 |
| 20260906092220 | 23 | 225 | 0.0 | 3.2 | 0.00 | 0.00 | 0.00 | 94 | 1010.1 |
| 20260906091717 | 23 | 269 | 0.0 | 3.2 | 0.00 | 0.00 | 0.00 | 94 | 1010.2 |
| 20260906091213 | 23 | 34 | 0.0 | 1.6 | 0.00 | 0.00 | 0.00 | 94 | 1010.1 |
| 20260906090709 | 23 | 88 | 0.0 | 1.6 | 0.00 | 0.00 | 0.00 | 94 | 1010.2 |
| 20260906090208 | 23 | 110 | 0.0 | 1.6 | 0.00 | 0.00 | 0.00 | 94 | 1010.3 |
| 20260906085707 | 23 | 245 | 0.0 | 1.6 | 0.00 | 0.00 | 0.00 | 94 | 1010.2 |
| 20260906085206 | 23 | 131 | 0.0 | 1.6 | 0.00 | 0.00 | 0.00 | 93 | 1010.2 |
| 20260906084701 | 23 | 284 | 0.0 | 4.8 | 0.00 | 0.00 | 0.00 | 94 | 1009.9 |
| 20260906084155 | 23 | 79 | 1.6 | 4.8 | 0.00 | 0.00 | 0.00 | 94 | 1010.3 |
| 20260906083650 | 23 | 74 | 1.6 | 3.2 | 0.00 | 0.00 | 0.00 | 95 | 1010.2 |
| 20260906083145 | 23 | 56 | 1.6 | 3.2 | 0.00 | 0.00 | 0.00 | 95 | 1010.2 |
| 20260906082641 | 23 | 102 | 0.0 | 0.0 | 0.00 | 0.00 | 0.00 | 95 | 1010.2 |
| 20260906082136 | 23 | 256 | 0.0 | 1.6 | 0.00 | 0.00 | 0.00 | 95 | 1010.4 |
| 20260906081632 | 23 | 284 | 0.0 | 1.6 | 0.00 | 0.00 | 0.00 | 95 | 1010.2 |
| 20260906081126 | 23 | 67 | 0.0 | 1.6 | 0.00 | 0.00 | 0.00 | 94 | 1010.2 |
| 20260906080623 | 23 | 269 | 0.0 | 1.6 | 0.00 | 0.00 | 0.00 | 94 | 1010.4 |
| 20260906080119 | 23 | 75 | 0.0 | 1.6 | 0.00 | 0.00 | 0.00 | 94 | 1010.4 |
| 20260906075613 | 24 | 308 | 1.6 | 3.2 | 0.00 | 0.00 | 0.00 | 94 | 1010.4 |
| 20260906075108 | 24 | 205 | 0.0 | 3.2 | 0.00 | 0.00 | 0.00 | 94 | 1010.6 |
| 20260906074603 | 24 | 62 | 0.0 | 0.0 | 0.00 | 0.00 | 0.00 | 93 | 1010.4 |
| 20260906074102 | 24 | 37 | 0.0 | 4.8 | 0.00 | 0.00 | 0.00 | 93 | 1010.2 |
| 20260906073557 | 24 | 293 | 0.0 | 1.6 | 0.00 | 0.00 | 0.00 | 93 | 1010.3 |
| 20260906073052 | 24 | 333 | 0.0 | 1.6 | 0.00 | 0.00 | 0.00 | 93 | 1010.2 |
| 20260906072547 | 24 | 245 | 0.0 | 3.2 | 0.00 | 0.00 | 0.00 | 93 | 1010.3 |
| 20260906072043 | 25 | 230 | 0.0 | 1.6 | 0.00 | 0.00 | 0.00 | 92 | 1010.4 |
| 20260906071539 | 25 | 54 | 1.6 | 3.2 | 0.00 | 0.00 | 0.00 | 92 | 1010.4 |
| 20260906071034 | 25 | 105 | 1.6 | 3.2 | 0.00 | 0.00 | 0.00 | 93 | 1010.5 |
| 20260906070531 | 25 | 299 | 0.0 | 0.0 | 0.00 | 0.00 | 0.00 | 92 | 1010.5 |
| 20260906070026 | 25 | 309 | 0.0 | 0.0 | 0.00 | 0.00 | 0.00 | 92 | 1010.9 |
| 20260906065525 | 25 | 269 | 0.0 | 0.0 | 0.00 | 0.00 | 0.00 | 92 | 1011.1 |
| 20260906065021 | 25 | 156 | 0.0 | 1.6 | 0.00 | 0.00 | 0.00 | 91 | 1011.1 |
| 20260906064516 | 25 | 333 | 0.0 | 0.0 | 0.00 | 0.00 | 0.00 | 91 | 1011.0 |
| 20260906064011 | 25 | 256 | 0.0 | 1.6 | 0.00 | 0.00 | 0.00 | 92 | 1011.0 |
| 20260906063507 | 25 | 284 | 0.0 | 1.6 | 0.00 | 0.00 | 0.00 | 91 | 1010.9 |
| 20260906063002 | 25 | 186 | 0.0 | 0.0 | 0.00 | 0.00 | 0.00 | 92 | 1010.9 |
| 20260906062457 | 25 | 44 | 1.6 | 3.2 | 0.00 | 0.00 | 0.00 | 93 | 1011.1 |
| 20260906061952 | 25 | 77 | 0.0 | 0.0 | 0.00 | 0.00 | 0.00 | 94 | 1011.1 |
| 20260906061447 | 25 | 243 | 0.0 | 3.2 | 0.00 | 0.00 | 0.00 | 94 | 1011.0 |
| 20260906060942 | 25 | 284 | 0.0 | 1.6 | 0.00 | 0.00 | 0.00 | 95 | 1011.2 |
| 20260906060439 | 25 | 72 | 0.0 | 1.6 | 0.00 | 0.00 | 0.00 | 96 | 1011.2 |
| 20260906055935 | 25 | 92 | 1.6 | 3.2 | 0.00 | 0.00 | 0.00 | 96 | 1011.2 |
| 20260906055431 | 25 | 131 | 0.0 | 1.6 | 0.00 | 0.00 | 0.00 | 96 | 1011.1 |
| 20260906054926 | 26 | 309 | 0.0 | 0.0 | 0.00 | 0.00 | 0.00 | 96 | 1011.2 |
| 20260906054421 | 26 | 217 | 0.0 | 0.0 | 0.00 | 0.00 | 0.00 | 95 | 1010.9 |
| 20260906053917 | 26 | 210 | 1.6 | 3.2 | 0.00 | 0.00 | 0.00 | 95 | 1011.2 |
| 20260906053412 | 26 | 217 | 0.0 | 1.6 | 0.00 | 0.00 | 0.00 | 95 | 1011.3 |
| 20260906052908 | 26 | 284 | 0.0 | 3.2 | 0.00 | 0.00 | 0.00 | 94 | 1011.3 |
| 20260906052404 | 26 | 276 | 1.6 | 1.6 | 0.00 | 0.00 | 0.00 | 94 | 1011.2 |
| 20260906051901 | 26 | 269 | 0.0 | 0.0 | 0.00 | 0.00 | 0.00 | 94 | 1011.1 |
| 20260906051401 | 26 | 220 | 0.0 | 1.6 | 0.00 | 0.00 | 0.00 | 94 | 1011.4 |
| 20260906050856 | 26 | 230 | 0.0 | 1.6 | 0.00 | 0.00 | 0.00 | 93 | 1011.1 |
| 20260906050351 | 26 | 255 | 0.0 | 1.6 | 0.00 | 0.00 | 0.00 | 93 | 1011.2 |
| 20260906045850 | 26 | 248 | 1.6 | 1.6 | 0.00 | 0.00 | 0.00 | 93 | 1011.2 |
| 20260906045344 | 26 | 27 | 0.0 | 1.6 | 0.00 | 0.00 | 0.00 | 93 | 1011.3 |
| 20260906044840 | 27 | 103 | 3.2 | 3.2 | 0.00 | 0.00 | 0.00 | 94 | 1011.2 |
| 20260906044340 | 27 | 206 | 3.2 | 3.2 | 0.00 | 0.00 | 0.00 | 93 | 1011.6 |
| 20260906043836 | 27 | 142 | 0.0 | 0.0 | 0.00 | 0.00 | 0.00 | 93 | 1011.7 |
| 20260906043332 | 27 | 89 | 3.2 | 3.2 | 0.00 | 0.00 | 0.00 | 92 | 1011.8 |
| 20260906042827 | 27 | 333 | 0.0 | 0.0 | 0.00 | 0.00 | 0.00 | 92 | 1011.9 |
| 20260906042326 | 27 | 124 | 0.0 | 0.0 | 0.00 | 0.00 | 0.00 | 92 | 1011.8 |
| 20260906041821 | 27 | 212 | 0.0 | 0.0 | 0.00 | 0.00 | 0.00 | 91 | 1011.8 |
| 20260906041317 | 27 | 28 | 0.0 | 3.2 | 0.00 | 0.00 | 0.00 | 91 | 1011.6 |
| 20260906040812 | 27 | 95 | 4.8 | 4.8 | 0.00 | 0.00 | 0.00 | 91 | 1011.7 |
| 20260906040307 | 27 | 127 | 0.0 | 0.0 | 0.00 | 0.00 | 0.00 | 91 | 1011.7 |
| 20260906035802 | 27 | 242 | 0.0 | 0.0 | 0.00 | 0.00 | 0.00 | 91 | 1011.8 |
| 20260906035258 | 28 | 84 | 0.0 | 4.8 | 0.00 | 0.00 | 0.00 | 91 | 1011.8 |
| 20260906034757 | 27 | 66 | 0.0 | 3.2 | 0.00 | 0.00 | 0.00 | 91 | 1011.7 |
| 20260906034252 | 27 | 336 | 3.2 | 4.8 | 0.00 | 0.00 | 0.00 | 92 | 1011.6 |
| 20260906033748 | 27 | 19 | 0.0 | 4.8 | 0.00 | 0.00 | 0.00 | 92 | 1011.5 |
| 20260906033247 | 27 | 19 | 0.0 | 4.8 | 0.00 | 0.00 | 0.00 | 92 | 1011.7 |
| 20260906032744 | 27 | 15 | 0.0 | 3.2 | 0.00 | 0.00 | 0.00 | 92 | 1011.6 |
| 20260906032243 | 27 | 5 | 1.6 | 4.8 | 0.00 | 0.00 | 0.00 | 91 | 1011.7 |
| 20260906031739 | 27 | 349 | 0.0 | 3.2 | 0.00 | 0.00 | 0.00 | 91 | 1011.6 |
| 20260906031235 | 27 | 357 | 1.6 | 3.2 | 0.00 | 0.00 | 0.00 | 91 | 1011.7 |
| 20260906030729 | 27 | 5 | 0.0 | 6.4 | 0.00 | 0.00 | 0.00 | 91 | 1011.8 |
| 20260906030224 | 27 | 39 | 0.0 | 4.8 | 0.00 | 0.00 | 0.00 | 91 | 1011.6 |
| 20260906025723 | 27 | 38 | 0.0 | 6.4 | 0.00 | 0.00 | 0.00 | 91 | 1011.4 |
| 20260906025218 | 28 | 69 | 1.6 | 4.8 | 0.00 | 0.00 | 0.00 | 90 | 1011.4 |
| 20260906024717 | 28 | 3 | 3.2 | 9.7 | 0.00 | 0.00 | 0.00 | 90 | 1011.5 |
| 20260906024216 | 27 | 341 | 4.8 | 9.7 | 0.00 | 0.00 | 0.00 | 90 | 1011.1 |
| 20260906023712 | 27 | 338 | 3.2 | 4.8 | 0.00 | 0.00 | 0.00 | 91 | 1011.1 |
| 20260906023207 | 27 | 1 | 6.4 | 6.4 | 0.00 | 0.00 | 0.00 | 91 | 1011.2 |
| 20260906022703 | 27 | 339 | 3.2 | 6.4 | 0.00 | 0.00 | 0.00 | 91 | 1011.1 |
| 20260906022158 | 27 | 337 | 3.2 | 4.8 | 0.00 | 0.00 | 0.00 | 91 | 1010.9 |
| 20260906021654 | 27 | 349 | 1.6 | 3.2 | 0.00 | 0.00 | 0.00 | 91 | 1010.7 |
| 20260906021152 | 27 | 28 | 0.0 | 1.6 | 0.00 | 0.00 | 0.00 | 90 | 1010.5 |
| 20260906020647 | 27 | 255 | 0.0 | 3.2 | 0.00 | 0.00 | 0.00 | 90 | 1010.8 |
| 20260906020142 | 27 | 44 | 0.0 | 0.0 | 0.00 | 0.00 | 0.00 | 90 | 1011.0 |
| 20260906015636 | 27 | 129 | 0.0 | 1.6 | 0.00 | 0.00 | 0.00 | 90 | 1010.9 |
| 20260906015134 | 27 | 142 | 0.0 | 3.2 | 0.00 | 0.00 | 0.00 | 89 | 1010.9 |
| 20260906014629 | 27 | 89 | 3.2 | 6.4 | 0.00 | 0.00 | 0.00 | 89 | 1010.6 |
| 20260906014125 | 27 | 88 | 4.8 | 4.8 | 0.00 | 0.00 | 0.00 | 89 | 1010.1 |
| 20260906013620 | 27 | 226 | 3.2 | 3.2 | 0.00 | 0.00 | 0.00 | 89 | 1009.6 |
| 20260906013116 | 28 | 251 | 0.0 | 3.2 | 0.00 | 0.00 | 0.00 | 88 | 1009.8 |
| 20260906012610 | 27 | 256 | 3.2 | 3.2 | 0.00 | 0.00 | 0.00 | 88 | 1010.0 |
| 20260906012105 | 28 | 255 | 0.0 | 0.0 | 0.00 | 0.00 | 0.00 | 88 | 1010.5 |
| 20260906011601 | 28 | 230 | 3.2 | 3.2 | 0.00 | 0.00 | 0.00 | 87 | 1010.6 |
| 20260906011101 | 28 | 40 | 3.2 | 6.4 | 0.00 | 0.00 | 0.00 | 87 | 1011.2 |
| 20260906010556 | 28 | 230 | 0.0 | 1.6 | 0.00 | 0.00 | 0.00 | 87 | 1011.0 |
| 20260906010052 | 28 | 112 | 0.0 | 6.4 | 0.00 | 0.00 | 0.00 | 87 | 1010.9 |
| 20260906005552 | 28 | 0 | 1.6 | 4.8 | 0.00 | 0.00 | 0.00 | 87 | 1011.1 |
| 20260906005051 | 28 | 45 | 0.0 | 4.8 | 0.00 | 0.00 | 0.00 | 87 | 1011.0 |
| 20260906004551 | 28 | 340 | 0.0 | 6.4 | 0.00 | 0.00 | 0.00 | 87 | 1010.9 |
| 20260906004045 | 28 | 330 | 1.6 | 6.4 | 0.00 | 0.00 | 0.00 | 87 | 1011.0 |
| 20260906003540 | 28 | 342 | 1.6 | 4.8 | 0.00 | 0.00 | 0.00 | 87 | 1011.3 |
| 20260906003036 | 28 | 323 | 3.2 | 4.8 | 0.00 | 0.00 | 0.00 | 87 | 1011.1 |
| 20260906002531 | 28 | 18 | 1.6 | 1.6 | 0.00 | 0.00 | 0.00 | 86 | 1011.1 |
| 20260906002026 | 28 | 315 | 0.0 | 3.2 | 0.00 | 0.00 | 0.00 | 86 | 1011.2 |
| 20260906001521 | 28 | 209 | 0.0 | 1.6 | 0.00 | 0.00 | 0.00 | 86 | 1011.4 |
| 20260906001015 | 28 | 269 | 0.0 | 1.6 | 0.00 | 0.00 | 0.00 | 86 | 1011.7 |
| 20260906000512 | 28 | 256 | 0.0 | 6.4 | 0.00 | 0.00 | 0.00 | 86 | 1011.5 |
| 20260906000006 | 28 | 316 | 3.2 | 3.2 | 0.00 | 0.00 | 0.00 | 86 | 1011.3 |
| 20260905235500 | 28 | 56 | 0.0 | 3.2 | 0.00 | 0.00 | 0.00 | 85 | 1011.5 |
| 20260905234955 | 28 | 356 | 0.0 | 3.2 | 0.00 | 0.00 | 0.00 | 85 | 1011.4 |
| 20260905234450 | 28 | 26 | 1.6 | 3.2 | 0.00 | 0.00 | 0.00 | 85 | 1011.3 |
| 20260905233944 | 28 | 237 | 1.6 | 3.2 | 0.00 | 0.00 | 0.00 | 85 | 1011.4 |
| 20260905233440 | 28 | 359 | 0.0 | 4.8 | 0.00 | 0.00 | 0.00 | 84 | 1011.4 |
| 20260905232939 | 29 | 7 | 0.0 | 3.2 | 0.00 | 0.00 | 0.00 | 85 | 1011.4 |
| 20260905232436 | 29 | 33 | 0.0 | 3.2 | 0.00 | 0.00 | 0.00 | 84 | 1011.5 |
| 20260905231931 | 29 | 279 | 1.6 | 6.4 | 0.00 | 0.00 | 0.00 | 83 | 1011.3 |
| 20260905231427 | 30 | 282 | 0.0 | 3.2 | 0.00 | 0.00 | 0.00 | 83 | 1011.5 |
| 20260905230923 | 30 | 311 | 0.0 | 3.2 | 0.00 | 0.00 | 0.00 | 82 | 1011.2 |
| 20260905230420 | 30 | 348 | 1.6 | 3.2 | 0.00 | 0.00 | 0.00 | 81 | 1011.2 |
| 20260905225914 | 30 | 37 | 3.2 | 4.8 | 0.00 | 0.00 | 0.00 | 80 | 1011.1 |
| 20260905225409 | 31 | 323 | 1.6 | 4.8 | 0.00 | 0.00 | 0.00 | 78 | 1011.1 |
| 20260905224904 | 31 | 268 | 1.6 | 3.2 | 0.00 | 0.00 | 0.00 | 77 | 1011.0 |
| 20260905224359 | 32 | 209 | 1.6 | 4.8 | 0.00 | 0.00 | 0.00 | 75 | 1011.2 |
| 20260905223854 | 32 | 256 | 0.0 | 4.8 | 0.00 | 0.00 | 0.00 | 73 | 1011.2 |
| 20260905223351 | 32 | 247 | 0.0 | 4.8 | 0.00 | 0.00 | 0.00 | 73 | 1011.1 |
| 20260905222846 | 32 | 226 | 4.8 | 4.8 | 0.00 | 0.00 | 0.00 | 71 | 1010.9 |
| 20260905222345 | 32 | 314 | 1.6 | 4.8 | 0.00 | 0.00 | 0.00 | 71 | 1010.9 |
| 20260905221841 | 32 | 259 | 3.2 | 4.8 | 0.00 | 0.00 | 0.00 | 71 | 1010.7 |
| 20260905221338 | 33 | 248 | 3.2 | 4.8 | 0.00 | 0.00 | 0.00 | 70 | 1010.9 |
| 20260905220833 | 33 | 264 | 0.0 | 4.8 | 0.00 | 0.00 | 0.00 | 71 | 1010.9 |
| 20260905220329 | 32 | 260 | 1.6 | 4.8 | 0.00 | 0.00 | 0.00 | 73 | 1010.9 |
| 20260905215828 | 33 | 231 | 3.2 | 3.2 | 0.00 | 0.00 | 0.00 | 70 | 1010.9 |
| 20260905215324 | 32 | 179 | 3.2 | 4.8 | 0.00 | 0.00 | 0.00 | 70 | 1011.0 |
| 20260905214821 | 32 | 108 | 0.0 | 3.2 | 0.00 | 0.00 | 0.00 | 71 | 1010.7 |
| 20260905214315 | 32 | 229 | 1.6 | 4.8 | 0.00 | 0.00 | 0.00 | 72 | 1010.9 |
| 20260905213810 | 32 | 266 | 3.2 | 6.4 | 0.00 | 0.00 | 0.00 | 73 | 1010.9 |
| 20260905213307 | 33 | 240 | 1.6 | 4.8 | 0.00 | 0.00 | 0.00 | 72 | 1010.8 |
| 20260905212801 | 32 | 357 | 0.0 | 6.4 | 0.00 | 0.00 | 0.00 | 73 | 1010.8 |
| 20260905212301 | 32 | 258 | 1.6 | 4.8 | 0.00 | 0.00 | 0.00 | 74 | 1010.8 |
| 20260905211755 | 32 | 243 | 4.8 | 6.4 | 0.00 | 0.00 | 0.00 | 74 | 1010.7 |
| 20260905211250 | 32 | 237 | 3.2 | 6.4 | 0.00 | 0.00 | 0.00 | 72 | 1010.8 |
| 20260905210748 | 33 | 269 | 0.0 | 4.8 | 0.00 | 0.00 | 0.00 | 71 | 1010.6 |
| 20260905210247 | 33 | 271 | 4.8 | 6.4 | 0.00 | 0.00 | 0.00 | 70 | 1010.5 |
| 20260905205746 | 32 | 298 | 0.0 | 6.4 | 0.00 | 0.00 | 0.00 | 71 | 1010.6 |
| 20260905205241 | 33 | 240 | 3.2 | 4.8 | 0.00 | 0.00 | 0.00 | 69 | 1010.6 |
| 20260905204740 | 33 | 287 | 3.2 | 4.8 | 0.00 | 0.00 | 0.00 | 69 | 1010.5 |
| 20260905204236 | 33 | 233 | 6.4 | 6.4 | 0.00 | 0.00 | 0.00 | 69 | 1010.3 |
| 20260905203735 | 33 | 239 | 6.4 | 8.0 | 0.00 | 0.00 | 0.00 | 69 | 1010.3 |
| 20260905203231 | 35 | 264 | 0.0 | 4.8 | 0.00 | 0.00 | 0.00 | 65 | 1010.3 |
| 20260905202726 | 35 | 30 | 3.2 | 8.0 | 0.00 | 0.00 | 0.00 | 65 | 1010.2 |
| 20260905202221 | 35 | 322 | 3.2 | 4.8 | 0.00 | 0.00 | 0.00 | 65 | 1010.4 |
| 20260905201716 | 34 | 246 | 3.2 | 4.8 | 0.00 | 0.00 | 0.00 | 67 | 1010.3 |
| 20260905201211 | 35 | 128 | 1.6 | 4.8 | 0.00 | 0.00 | 0.00 | 64 | 1010.2 |
| 20260905200706 | 35 | 359 | 3.2 | 4.8 | 0.00 | 0.00 | 0.00 | 64 | 1010.4 |
| 20260905200202 | 34 | 4 | 0.0 | 4.8 | 0.00 | 0.00 | 0.00 | 66 | 1010.3 |
| 20260905195700 | 35 | 225 | 4.8 | 6.4 | 0.00 | 0.00 | 0.00 | 66 | 1010.4 |
| 20260905195155 | 36 | 51 | 3.2 | 3.2 | 0.00 | 0.00 | 0.00 | 63 | 1010.4 |
| 20260905194650 | 36 | 331 | 1.6 | 6.4 | 0.00 | 0.00 | 0.00 | 62 | 1010.4 |
| 20260905194149 | 35 | 230 | 0.0 | 4.8 | 0.00 | 0.00 | 0.00 | 63 | 1010.6 |
| 20260905193638 | 35 | 253 | 3.2 | 4.8 | 0.00 | 0.00 | 0.00 | 64 | 1010.6 |
| 20260905193133 | 35 | 247 | 0.0 | 4.8 | 0.00 | 0.00 | 0.00 | 64 | 1010.7 |
| 20260905192629 | 35 | 244 | 1.6 | 3.2 | 0.00 | 0.00 | 0.00 | 64 | 1010.6 |
| 20260905192125 | 35 | 237 | 3.2 | 4.8 | 0.00 | 0.00 | 0.00 | 64 | 1010.8 |
| 20260905191624 | 35 | 301 | 4.8 | 4.8 | 0.00 | 0.00 | 0.00 | 65 | 1011.0 |
| 20260905191123 | 35 | 267 | 0.0 | 6.4 | 0.00 | 0.00 | 0.00 | 63 | 1011.0 |
| 20260905190621 | 35 | 257 | 3.2 | 4.8 | 0.00 | 0.00 | 0.00 | 65 | 1011.2 |
| 20260905190121 | 34 | 220 | 1.6 | 4.8 | 0.00 | 0.00 | 0.00 | 67 | 1011.3 |
| 20260905185620 | 35 | 290 | 0.0 | 8.0 | 0.00 | 0.00 | 0.00 | 63 | 1011.4 |
| 20260905185114 | 35 | 260 | 4.8 | 9.7 | 0.00 | 0.00 | 0.00 | 62 | 1011.5 |
| 20260905184609 | 35 | 328 | 3.2 | 8.0 | 0.00 | 0.00 | 0.00 | 63 | 1011.4 |
| 20260905184108 | 36 | 276 | 0.0 | 4.8 | 0.00 | 0.00 | 0.00 | 60 | 1011.4 |
| 20260905183607 | 35 | 289 | 0.0 | 4.8 | 0.00 | 0.00 | 0.00 | 61 | 1011.6 |
| 20260905183103 | 35 | 345 | 4.8 | 9.7 | 0.00 | 0.00 | 0.00 | 62 | 1012.0 |
| 20260905182602 | 34 | 8 | 1.6 | 8.0 | 0.00 | 0.00 | 0.00 | 64 | 1011.9 |
| 20260905182057 | 32 | 315 | 3.2 | 6.4 | 0.00 | 0.00 | 0.00 | 66 | 1011.9 |
| 20260905181557 | 33 | 44 | 4.8 | 4.8 | 0.00 | 0.00 | 0.00 | 68 | 1011.8 |
| 20260905181056 | 33 | 262 | 0.0 | 4.8 | 0.00 | 0.00 | 0.00 | 65 | 1012.0 |
| 20260905180551 | 35 | 246 | 4.8 | 4.8 | 0.00 | 0.00 | 0.00 | 64 | 1012.1 |
| 20260905180046 | 34 | 250 | 3.2 | 4.8 | 0.00 | 0.00 | 0.00 | 65 | 1011.9 |
| 20260905175545 | 33 | 233 | 4.8 | 4.8 | 0.00 | 0.00 | 0.00 | 66 | 1011.9 |
| 20260905175041 | 35 | 282 | 8.0 | 8.0 | 0.00 | 0.00 | 0.00 | 64 | 1012.2 |
| 20260905174536 | 34 | 289 | 4.8 | 9.7 | 0.00 | 0.00 | 0.00 | 59 | 1012.1 |
| 20260905174032 | 35 | 23 | 3.2 | 9.7 | 0.00 | 0.00 | 0.00 | 58 | 1012.3 |
| 20260905173528 | 33 | 11 | 3.2 | 4.8 | 0.00 | 0.00 | 0.00 | 62 | 1012.4 |
| 20260905173023 | 33 | 20 | 4.8 | 8.0 | 0.00 | 0.00 | 0.00 | 61 | 1012.6 |
| 20260905172522 | 35 | 294 | 0.0 | 6.4 | 0.00 | 0.00 | 0.00 | 56 | 1012.8 |
| 20260905172017 | 33 | 262 | 1.6 | 9.7 | 0.00 | 0.00 | 0.00 | 59 | 1012.8 |
| 20260905171514 | 34 | 119 | 3.2 | 6.4 | 0.00 | 0.00 | 0.00 | 58 | 1012.7 |
| 20260905171009 | 33 | 108 | 3.2 | 6.4 | 0.00 | 0.00 | 0.00 | 61 | 1012.6 |
| 20260905170506 | 34 | 305 | 3.2 | 8.0 | 0.00 | 0.00 | 0.00 | 59 | 1012.8 |
| 20260905170000 | 36 | 336 | 4.8 | 4.8 | 0.00 | 0.00 | 0.00 | 56 | 1012.9 |
| 20260905165455 | 34 | 27 | 6.4 | 6.4 | 0.00 | 0.00 | 0.00 | 60 | 1012.8 |
| 20260905164949 | 33 | 233 | 0.0 | 8.0 | 0.00 | 0.00 | 0.00 | 62 | 1013.1 |
| 20260905164444 | 33 | 16 | 4.8 | 8.0 | 0.00 | 0.00 | 0.00 | 60 | 1013.1 |
| 20260905163939 | 33 | 126 | 1.6 | 4.8 | 0.00 | 0.00 | 0.00 | 63 | 1013.3 |
| 20260905163436 | 33 | 0 | 4.8 | 11.3 | 0.00 | 0.00 | 0.00 | 61 | 1013.3 |
| 20260905162931 | 32 | 133 | 4.8 | 6.4 | 0.00 | 0.00 | 0.00 | 64 | 1013.5 |
| 20260905162426 | 33 | 249 | 0.0 | 1.6 | 0.00 | 0.00 | 0.00 | 64 | 1013.7 |
| 20260905161921 | 34 | 236 | 3.2 | 3.2 | 0.00 | 0.00 | 0.00 | 63 | 1013.7 |
| 20260905161420 | 33 | 18 | 4.8 | 8.0 | 0.00 | 0.00 | 0.00 | 64 | 1013.8 |
| 20260905160918 | 33 | 313 | 1.6 | 3.2 | 0.00 | 0.00 | 0.00 | 62 | 1013.9 |
| 20260905160412 | 33 | 314 | 4.8 | 6.4 | 0.00 | 0.00 | 0.00 | 64 | 1013.9 |
| 20260905155906 | 32 | 29 | 8.0 | 8.0 | 0.00 | 0.00 | 0.00 | 66 | 1014.0 |
| 20260905155401 | 32 | 39 | 6.4 | 9.7 | 0.00 | 0.00 | 0.00 | 68 | 1014.0 |
| 20260905154900 | 32 | 15 | 3.2 | 8.0 | 0.00 | 0.00 | 0.00 | 68 | 1014.0 |
| 20260905154355 | 32 | 13 | 4.8 | 8.0 | 0.00 | 0.00 | 0.00 | 67 | 1014.1 |
| 20260905153851 | 32 | 21 | 8.0 | 11.3 | 0.00 | 0.00 | 0.00 | 66 | 1014.3 |
| 20260905153347 | 33 | 46 | 4.8 | 6.4 | 0.00 | 0.00 | 0.00 | 66 | 1014.4 |
| 20260905152847 | 33 | 46 | 4.8 | 6.4 | 0.00 | 0.00 | 0.00 | 66 | 1014.2 |
| 20260905152346 | 32 | 29 | 6.4 | 6.4 | 0.00 | 0.00 | 0.00 | 70 | 1014.2 |
| 20260905151841 | 32 | 29 | 6.4 | 6.4 | 0.00 | 0.00 | 0.00 | 70 | 1014.1 |
| 20260905151337 | 32 | 26 | 4.8 | 6.4 | 0.00 | 0.00 | 0.00 | 70 | 1014.3 |
| 20260905150837 | 32 | 26 | 4.8 | 6.4 | 0.00 | 0.00 | 0.00 | 70 | 1014.3 |
| 20260905150331 | 31 | 16 | 9.7 | 9.7 | 0.00 | 0.00 | 0.00 | 72 | 1014.3 |
| 20260905145828 | 32 | 79 | 3.2 | 4.8 | 0.00 | 0.00 | 0.00 | 70 | 1014.3 |
| 20260905145323 | 31 | 92 | 1.6 | 4.8 | 0.00 | 0.00 | 0.00 | 72 | 1014.4 |
| 20260905144821 | 31 | 235 | 0.0 | 3.2 | 0.00 | 0.00 | 0.00 | 72 | 1014.3 |
| 20260905144317 | 30 | 296 | 3.2 | 9.7 | 0.00 | 0.00 | 0.00 | 74 | 1014.5 |
| 20260905143816 | 30 | 11 | 0.0 | 1.6 | 0.00 | 0.00 | 0.00 | 77 | 1014.3 |
| 20260905143311 | 30 | 354 | 0.0 | 3.2 | 0.00 | 0.00 | 0.00 | 77 | 1014.4 |
| 20260905142810 | 30 | 354 | 0.0 | 3.2 | 0.00 | 0.00 | 0.00 | 77 | 1014.2 |
| 20260905142306 | 31 | 56 | 6.4 | 8.0 | 0.00 | 0.00 | 0.00 | 74 | 1014.5 |
| 20260905141759 | 31 | 314 | 8.0 | 8.0 | 0.00 | 0.00 | 0.00 | 74 | 1014.3 |
| 20260905141255 | 31 | 19 | 4.8 | 6.4 | 0.00 | 0.00 | 0.00 | 75 | 1014.3 |
| 20260905140745 | 30 | 29 | 6.4 | 6.4 | 0.00 | 0.00 | 0.00 | 78 | 1014.2 |
| 20260905140245 | 30 | 36 | 3.2 | 3.2 | 0.00 | 0.00 | 0.00 | 78 | 1014.1 |
| 20260905135743 | 30 | 342 | 0.0 | 8.0 | 0.00 | 0.00 | 0.00 | 77 | 1014.3 |
| 20260905135239 | 28 | 71 | 1.6 | 3.2 | 0.00 | 0.00 | 0.00 | 87 | 1014.3 |
| 20260905134739 | 28 | 71 | 1.6 | 3.2 | 0.00 | 0.00 | 0.00 | 87 | 1014.4 |
| 20260905134233 | 28 | 71 | 1.6 | 3.2 | 0.00 | 0.00 | 0.00 | 87 | 1014.3 |
| 20260905133728 | 28 | 71 | 1.6 | 3.2 | 0.00 | 0.00 | 0.00 | 87 | 1014.5 |
| 20260905133223 | 28 | 71 | 1.6 | 3.2 | 0.00 | 0.00 | 0.00 | 87 | 1014.5 |
| 20260905132722 | 27 | 85 | 4.8 | 4.8 | 0.00 | 0.00 | 0.00 | 92 | 1014.5 |
| 20260905132218 | 27 | 85 | 4.8 | 4.8 | 0.00 | 0.00 | 0.00 | 92 | 1014.5 |
| 20260905131713 | 27 | 85 | 4.8 | 4.8 | 0.00 | 0.00 | 0.00 | 92 | 1014.6 |
| 20260905131208 | 27 | 85 | 4.8 | 4.8 | 0.00 | 0.00 | 0.00 | 92 | 1014.8 |
| 20260905130702 | 27 | 21 | 4.8 | 8.0 | 0.00 | 0.00 | 0.00 | 93 | 1014.6 |
| 20260905130156 | 26 | 27 | 6.4 | 6.4 | 0.00 | 0.00 | 0.00 | 98 | 1014.6 |
| 20260905125656 | 26 | 27 | 6.4 | 6.4 | 0.00 | 0.00 | 0.00 | 98 | 1014.5 |
| 20260905125152 | 26 | 27 | 6.4 | 6.4 | 0.00 | 0.00 | 0.00 | 98 | 1014.5 |
| 20260905124648 | 26 | 27 | 6.4 | 6.4 | 0.00 | 0.00 | 0.00 | 98 | 1014.6 |
| 20260905124143 | 26 | 27 | 6.4 | 6.4 | 0.00 | 0.00 | 0.00 | 98 | 1014.5 |
| 20260905123633 | 26 | 27 | 6.4 | 6.4 | 0.00 | 0.00 | 0.00 | 98 | 1014.4 |